Location: Gleizolles
(44.4833°N, 6.7667°E)
Time: 15:12:32
(UTC+00:00)

Explorer 7 - Pass Details

Date: 22 June 2024
Orbit: 465 x 619 km, 50.3° (Epoch: 12 July)

Event Time Altitude Azimuth Distance (km) Brightness Sun altitude
Rises 10:13:01 0° 226° (SW) 2,703 10.4 63.1°
Reaches altitude 10° 10:15:20 10° 222° (SW) 1,784 9.6 63.4°
Maximum altitude 10:19:16 51° 146° (SE) 653 9.3 63.9°
Drops below altitude 10° 10:23:01 10° 70° (ENE) 1,704 9.6 64.3°
Sets 10:25:11 0° 65° (ENE) 2,566 10.3 64.6°
